Location: Maccacari
(45.1333°N, 11.1333°E)
Time: 23:18:35
(UTC+00:00)

Cosmos 1627 Rocket - Pass Details

Date: 18 September 2020
Orbit: 951 x 1003 km, 82.9° (Epoch: 25 October)

Event Time Altitude Azimuth Distance (km) Brightness Sun altitude
Rises 19:43:16 0° 352° (N) 3,731 8.1 -24.9°
Reaches altitude 10° 19:45:48 10° 353° (N) 2,782 7.3 -25.3°
Maximum altitude 19:52:13 83° 82° (E) 1,016 4.4 -26.2°
Enters shadow 19:53:35 58° 161° (SSE) 1,156 4.5 -26.4°
